Weather History for Holloman AFB, NM

Change the Weather History Date:

Tuesday, May 28, 2013

  Actual Average Record
Temperature  
Mean Temperature 74 °F -  
Max Temperature 93 °F 89 °F 96 °F (2000)
Min Temperature 54 °F 57 °F 45 °F (2012)
Cooling Degree Days 8    
Growing Degree Days 24 (Base 50)    
Moisture  
Dew Point 7 °F    
Average Humidity 6    
Maximum Humidity 13    
Minimum Humidity 4    
Precipitation  
Precipitation 0.00 in - - ()
Sea Level Pressure  
Sea Level Pressure 29.62 in    
Wind  
Wind Speed 10 mph (SSW)    
Max Wind Speed 28 mph    
Max Gust Speed 32 mph    
Visibility 10 miles    
Events      
Averages and records for this station are not official NWS values.
T = Trace of Precipitation, MM = Missing Value Source: NWS Daily Summary

Daily Weather History Graph

Daily Weather History Graph

Search for Another Location

Airport:

Trip Planner

Search our weather history database for the weather conditions in past years. The results will help you decide how hot, cold, wet, or windy it might be!

Date:

Astronomy

May. 28, 2013 Rise Set
Actual Time 5:58 AM MDT 8:05 PM MDT
Civil Twilight 5:30 AM MDT 8:33 PM MDT
Nautical Twilight 4:56 AM MDT 9:07 PM MDT
Astronomical Twilight 4:19 AM MDT 9:44 PM MDT
Moon 11:38 PM MDT (5/28) 9:44 AM MDT (5/28)
Length of Visible Light 15h 03m
Length of Day
14h 07m
Waning Gibbous, 82% of the Moon is Illuminated
May 28
Waning Gibbous
May 31
Last Quarter
Jun 8
New
Jun 16
First Quarter
Jun 23
Full

Hourly Weather History & Observations

Time (MDT) Temp. Dew Point Humidity Pressure Visibility Wind Dir Wind Speed Gust Speed Precip Events Conditions
12:58 AM 69.1 °F 8.2 °F 9% 29.62 in 10.0 mi SE 5.8 mph - N/A   Clear
1:58 AM 64.8 °F 4.8 °F 9% 29.61 in 10.0 mi NNE 1.2 mph - N/A   Clear
2:58 AM 62.6 °F 7.5 °F 11% 29.60 in 10.0 mi East 3.5 mph - N/A   Clear
3:58 AM 60.4 °F 6.3 °F 12% 29.60 in 10.0 mi SE 5.8 mph - N/A   Clear
4:58 AM 58.6 °F 5.9 °F 12% 29.63 in 10.0 mi SE 3.5 mph - N/A   Clear
5:58 AM 54.3 °F 4.6 °F 13% 29.63 in 10.0 mi SW 3.5 mph - N/A   Clear
6:58 AM 56.1 °F 4.3 °F 12% 29.64 in 10.0 mi Calm Calm - N/A   Clear
7:58 AM 68.4 °F 10.0 °F 10% 29.62 in 10.0 mi SSE 5.8 mph - N/A   Clear
8:58 AM 76.3 °F 8.1 °F 7% 29.62 in 10.0 mi SSW 4.6 mph - N/A   Clear
9:58 AM 79.3 °F 7.0 °F 6% 29.61 in 10.0 mi WNW 1.2 mph - N/A   Clear
10:58 AM 85.5 °F 7.5 °F 5% 29.60 in 10.0 mi Variable 2.3 mph - N/A   Partly Cloudy
11:58 AM 87.4 °F 9.0 °F 5% 29.59 in 10.0 mi West 9.2 mph 19.6 mph N/A   Partly Cloudy
12:58 PM 88.7 °F 9.9 °F 5% 29.57 in 10.0 mi SE 11.5 mph 18.4 mph N/A   Scattered Clouds
1:26 PM 89.6 °F 6.8 °F 4% 29.76 in 10.0 mi South 15.0 mph 20.7 mph N/A   Scattered Clouds
1:46 PM 91.4 °F 6.8 °F 4% 29.74 in 10.0 mi WSW 17.3 mph 23.0 mph N/A   Scattered Clouds
1:51 PM 91.4 °F 6.8 °F 4% 29.75 in 10.0 mi SSW 12.7 mph 23.0 mph N/A   Partly Cloudy
1:58 PM 91.4 °F 6.8 °F 4% 29.53 in 10.0 mi Variable 4.6 mph - N/A   Partly Cloudy
2:25 PM 93.2 °F 6.8 °F 4% 29.73 in 10.0 mi SW 19.6 mph 25.3 mph N/A   Partly Cloudy
2:29 PM 93.2 °F 6.8 °F 4% 29.73 in 10.0 mi South 17.3 mph 25.3 mph N/A   Partly Cloudy
2:34 PM 93.2 °F 8.6 °F 4% 29.73 in 10.0 mi SSW 12.7 mph 25.3 mph N/A   Clear
2:58 PM 92.8 °F 4.1 °F 4% 29.51 in 10.0 mi SSW 17.3 mph 25.3 mph N/A   Clear
2:59 PM 93.2 °F 1.4 °F 4% 29.71 in 10.0 mi South 17.3 mph 25.3 mph N/A   Clear
3:07 PM 91.4 °F 6.8 °F 4% 29.71 in 10.0 mi SW 13.8 mph 24.2 mph N/A   Clear
3:08 PM 91.4 °F 6.8 °F 4% 29.71 in 10.0 mi WSW 16.1 mph 20.7 mph N/A   Clear
3:10 PM 91.4 °F 6.8 °F 4% 29.71 in 10.0 mi WSW 20.7 mph 24.2 mph N/A   Clear
3:28 PM 91.4 °F 6.8 °F 4% 29.71 in 10.0 mi SSW 17.3 mph 21.9 mph N/A   Clear
3:35 PM 93.2 °F 8.6 °F 4% 29.70 in 10.0 mi SW 17.3 mph 28.8 mph N/A   Clear
3:36 PM 93.2 °F 8.6 °F 4% 29.70 in 10.0 mi WSW 16.1 mph 28.8 mph N/A   Clear
3:53 PM 93.2 °F 6.8 °F 4% 29.70 in 10.0 mi WSW 20.7 mph 29.9 mph N/A   Clear
3:58 PM 92.3 °F 7.5 °F 4% 29.49 in 10.0 mi SW 27.6 mph 31.1 mph N/A   Clear
4:29 PM 91.4 °F 6.8 °F 4% 29.69 in 10.0 mi SSW 15.0 mph 25.3 mph N/A   Clear
4:39 PM 91.4 °F 6.8 °F 4% 29.69 in 10.0 mi SSW 18.4 mph 29.9 mph N/A   Clear
4:40 PM 91.4 °F 6.8 °F 4% 29.69 in 10.0 mi South 17.3 mph 29.9 mph N/A   Clear
4:46 PM 91.4 °F 8.6 °F 5% 29.69 in 10.0 mi SW 18.4 mph 29.9 mph N/A   Clear
4:47 PM 91.4 °F 8.6 °F 5% 29.69 in 10.0 mi WSW 19.6 mph 29.9 mph N/A   Clear
4:58 PM 91.4 °F 11.8 °F 5% 29.48 in 10.0 mi SW 20.7 mph 27.6 mph N/A   Clear
5:58 PM 90.5 °F 7.3 °F 4% 29.48 in 10.0 mi SW 18.4 mph 32.2 mph N/A   Clear
6:58 PM 89.1 °F 8.1 °F 5% 29.47 in 10.0 mi WSW 17.3 mph 24.2 mph N/A   Clear
7:58 PM 84.9 °F 2.1 °F 4% 29.46 in 10.0 mi WSW 13.8 mph - N/A   Clear
8:58 PM 79.5 °F 7.2 °F 6% 29.47 in 10.0 mi WSW 9.2 mph - N/A   Clear
9:58 PM 76.6 °F 8.4 °F 7% 29.47 in 10.0 mi West 5.8 mph - N/A   Clear
10:58 PM 74.3 °F 8.4 °F 8% 29.48 in 10.0 mi SE 4.6 mph - N/A   Clear
11:58 PM 73.8 °F 6.3 °F 7% 29.49 in 10.0 mi WSW 10.4 mph - N/A   Clear